Home   Weather   Pasco   Past weeks
Flag for USA

Past Weather in Pasco, Washington, USA — Yesterday and Last 2 Weeks

Now
60 °F

Passing clouds.


Feels Like: 60 °F
Forecast: 64 / 51 °F
Wind: 7 mph from Southwest

Location: Tri-Cities Airport

Current Time: Oct 16, 2019 at 10:34:27 pm

Latest Report: Oct 16, 2019 at 9:53 pm


Visibility: 10 mi

Pressure: 29.67 "Hg

Humidity: 53%

Dew Point: 43 °F

Location of PascoLocation

Past Weather in Pasco — Graph

°F

Pasco Temperature Yesterday

Maximum temperature yesterday: 60 °F (at 1:53 pm)
Minimum temperature yesterday: 34 °F (at 5:53 am)
Average temperature yesterday: 49 °F

High & Low Weather Summary for the Past Weeks

 TemperatureHumidityPressure
High79 °F (Oct 7, 2:53 pm)93% (Oct 6, 7:53 am)30.58 "Hg (Oct 6, 7:53 am)
Low22 °F (Oct 10, 6:53 am)23% (Oct 5, 3:53 pm)29.67 "Hg (Oct 16, 8:53 pm)
Average51 °F58%30.11 "Hg
* Reported Oct 1 8:53 pm — Oct 16 8:53 pm, Pasco. Weather by CustomWeather, © 2019

Note: Actual official high and low records may vary slightly from our data, if they occured in-between our weather recording intervals... More about our weather records

Advertising

Pasco Weather History for the Previous 24 Hours

Scroll right to see more
 ConditionsComfort  
Time TempWeatherWind HumidityBarometerVisibility
8:53 pm
Wed, Oct 16
60 °FLight rain. Overcast.13 mph56%29.67 "Hg10 mi
7:53 pm61 °FOvercast.10 mph48%29.72 "Hg10 mi
6:53 pm59 °FPassing clouds.3 mph64%29.72 "Hg10 mi
5:53 pm62 °FOvercast.No wind46%29.72 "Hg8 mi
4:53 pm63 °FPassing clouds.No wind48%29.72 "Hg10 mi
3:53 pm64 °FScattered clouds.No wind43%29.75 "Hg10 mi
2:53 pm65 °FSunny.7 mph44%29.75 "Hg9 mi
1:53 pm64 °FSunny.3 mph40%29.78 "Hg10 mi
12:53 pm62 °FSunny.No wind43%29.81 "Hg9 mi
11:53 am60 °FSunny.No wind47%29.84 "Hg9 mi
10:53 am58 °FSunny.No wind54%29.86 "Hg9 mi
9:53 am54 °FSunny.No wind64%29.88 "Hg9 mi
8:53 am53 °FSunny.5 mph64%29.88 "Hg10 mi
7:53 am48 °FSunny.3 mph74%29.89 "Hg10 mi
6:53 am48 °FClear.No wind77%29.88 "Hg10 mi
5:53 am48 °FClear.No wind77%29.89 "Hg10 mi
4:53 am47 °FClear.7 mph83%29.88 "Hg9 mi
3:53 am47 °FClear.No wind83%29.91 "Hg9 mi
2:53 am49 °FClear.7 mph80%29.93 "Hg9 mi
1:53 am49 °FClear.3 mph77%29.92 "Hg10 mi
12:53 am50 °FClear.No wind74%29.94 "Hg10 mi
11:53 pm
Tue, Oct 15
51 °FClear.No wind74%29.96 "Hg10 mi
10:53 pm50 °FClear.5 mph80%29.97 "Hg9 mi
Weather by CustomWeather, © 2019

See weather overview